DECAYED

STARLINK-1102, 44920 (Decayed)

Orbit data source: Space-Track

STARLINK-1102, 44920 was a payload satellite owned by SpaceX/Seattle (US) in LEO that was launched on Tue, 07 Jan 2020 UTC via an FALCON 9 launch vehicle from the Air Force Eastern Test Range (AFETR). Payload-class satellites include a variety of spacecraft equipped with specific instruments for various scientific and technological missions. These include communications satellites like Starlink; space stations such as the ISS; scientific satellites like the Hubble; Earth observation satellites from companies like Planet Labs, Umbra, and HawkEye 360; GPS; miniature CubeSats for education and research; and military/defense satellites.

Not visible in the next 10 days
Identifier
44920, 2020-001G
Orbit
Decayed
Country
Flag of USUS
Related business
Manufacturer
SpaceX/Seattle
Mission
Decayed Commercial Communications
Bus & Motor
STARLINK, Unknown motor
Mass
260 kg wet, ~248 kg dry
Launch date (UTC)
2020-01-07 (6 years ago)
Launch vehicle
FALCON 9
Launch site
Air Force Eastern Test Range (AFETR)
Object type
Payload
Rocket body
Debris
Shape & HBR
Box + 1 Pan, 10.1 m
Radar Cross Section
13.562 m², Large (>1 m²)

Expand to show TLE details & history
Last TLE update: 9 months ago

TLE from 9 months ago
0 STARLINK-1102
1 44920U 20001G   25075.83811117  .14471204  12477-4  48657-3 0  9992
2 44920  53.0188 355.2377 0006078 267.4293 201.5803 16.44291222288136
Epoch: 2025-03-16T20:06Z
TLE epoch observation values (Epoch: 2025-03-16T20:06:52.805Z)
Latitude
49.21373°
Longitude
-1.35006°
Altitude
163.683 km
Speed
7.812 km/s
True Right ascension
07h 40m 08s
True Declination
49° 01' 41"
Sunlit
Object was in full shadow at epoch
Visualization orbit readout
Latitude
Unknown
Longitude
Unknown
Altitude
Unknown
Speed
Unknown
Apparent Right ascension
Unknown
Apparent Declination
Unknown
Sunlit
N/A
Visualization observer readout
Local Sidereal Time
17:28:18
Azimuth
Unknown
Elevation
Unknown
Doppler factor
Unknown
Orbital elements
Apogee altitude
158.675 km
Perigee altitude
150.734 km
Semi-major axis
6,532.842 km
Eccentricity
0.00061
Inclination
53.0188°
RAAN
355.2377°
Arg. of periapsis
267.4293°
True anomaly
201.5547°
Mean anomaly
201.5803°
Eccentric anomaly
201.5675°
Mean motion
4.11046 °/min
Orbital period
87.58 mins
BSTAR
0.00048657
Loading maneuver chart data...
Computing Atmospheric mass density...

Documentation

Showing up to 5 results
|